Location: Newark
(36.8464°N, 25.6817°E)
Time: 00:48:01
(UTC+00:00)

Envisat - Pass Details

Date: 22 October 2019
Orbit: 764 x 766 km, 98.1° (Epoch: 16 November)

Event Time Altitude Azimuth Distance (km) Brightness Sun altitude
Rises 16:12:17 0° 160° (SSE) 3,218 6.1 -8.7°
Reaches altitude 10° 16:14:35 10° 158° (SSE) 2,295 5.3 -9.2°
Maximum altitude 16:19:37 71° 75° (ENE) 811 2.9 -10.2°
Drops below altitude 10° 16:24:41 10° 352° (N) 2,309 5.5 -11.2°
Sets 16:27:00 0° 351° (N) 3,239 6.3 -11.6°
